Alva, OK

8:19 PM CDT on May 25, 2017 (GMT -0500)
Alva Regional

Weather History for KAVK - December, 2013

Change the Weather History Date:

Saturday, December 28, 2013

  Actual Average Record
Temperature  
Mean Temperature 44 °F -  
Max Temperature 59 °F 46 °F 68 °F (1955)
Min Temperature 28 °F 26 °F 9 °F (1950)
Degree Days  
Heating Degree Days 22    
Moisture  
Dew Point 29 °F    
Average Humidity 66    
Maximum Humidity 100    
Minimum Humidity 29    
Precipitation  
Precipitation 0.00 in - - ()
Sea Level Pressure  
Sea Level Pressure 30.00 in    
Wind  
Wind Speed 11 mph (SSW)    
Max Wind Speed 21 mph    
Max Gust Speed 28 mph    
Visibility 10 miles    
Events      
Averages and records for this station are not official NWS values.
T = Trace of Precipitation, MM = Missing Value Source: NWS Daily Summary

Daily Weather History Graph

Daily Weather History Graph

Search for Another Location

Airport or City:

Trip Planner

Search our weather history database for the weather conditions in past years. The results will help you decide how hot, cold, wet, or windy it might be!

Date:

Astronomy

Dec. 28, 2013 Rise Set
Actual Time 7:46 AM CST 5:26 PM CST
Civil Twilight 7:17 AM CST 5:55 PM CST
Nautical Twilight 6:45 AM CST 6:27 PM CST
Astronomical Twilight 6:13 AM CST 6:59 PM CST
Moon 3:28 AM CST (12/28) 2:15 PM CST (12/28)
Length of Visible Light 10h 37m
Length of Day
9h 40m
Waning Crescent, 19% of the Moon is Illuminated
Dec 28
Waning Crescent
Jan 1
New
Jan 7
First Quarter
Jan 15
Full
Jan 23
Last Quarter

Hourly Weather History & Observations

Time (CST) Temp. Windchill Dew Point Humidity Pressure Visibility Wind Dir Wind Speed Gust Speed Precip Events Conditions
12:10 AM 35.6 °F 28.0 °F 28.4 °F 75% 30.21 in 10.0 mi SW 10.4 mph - N/A   Mostly Cloudy
12:30 AM 37.4 °F 30.3 °F 28.4 °F 70% 30.21 in 10.0 mi SW 10.4 mph - N/A   Scattered Clouds
12:50 AM 35.6 °F 28.6 °F 28.4 °F 75% 30.21 in 10.0 mi SW 9.2 mph - N/A   Mostly Cloudy
1:10 AM 33.8 °F 27.0 °F 28.4 °F 81% 30.19 in 10.0 mi SSW 8.1 mph - N/A   Mostly Cloudy
1:30 AM 33.8 °F 27.0 °F 28.4 °F 81% 30.19 in 10.0 mi SSW 8.1 mph - N/A   Mostly Cloudy
1:50 AM 32.0 °F 25.6 °F 26.6 °F 80% 30.18 in 10.0 mi SW 6.9 mph - N/A   Mostly Cloudy
2:10 AM 32.0 °F 24.2 °F 26.6 °F 80% 30.18 in 10.0 mi SSW 9.2 mph - N/A   Mostly Cloudy
2:30 AM 33.8 °F 25.8 °F 26.6 °F 75% 30.18 in 10.0 mi SSW 10.4 mph - N/A   Mostly Cloudy
2:50 AM 32.0 °F 23.6 °F 26.6 °F 80% 30.17 in 10.0 mi SSW 10.4 mph - N/A   Mostly Cloudy
3:10 AM 33.8 °F 27.0 °F 26.6 °F 75% 30.16 in 10.0 mi SSW 8.1 mph - N/A   Scattered Clouds
3:30 AM 32.0 °F 23.6 °F 26.6 °F 80% 30.15 in 10.0 mi SSW 10.4 mph - N/A   Partly Cloudy
3:50 AM 32.0 °F 23.0 °F 26.6 °F 80% 30.14 in 10.0 mi SW 11.5 mph - N/A   Partly Cloudy
4:10 AM 32.0 °F 23.0 °F 26.6 °F 80% 30.13 in 10.0 mi SSW 11.5 mph - N/A   Partly Cloudy
4:30 AM 32.0 °F 23.0 °F 26.6 °F 80% 30.12 in 10.0 mi SSW 11.5 mph - N/A   Scattered Clouds
4:50 AM 30.2 °F 20.2 °F 24.8 °F 80% 30.12 in 10.0 mi South 12.7 mph - N/A   Scattered Clouds
5:10 AM 32.0 °F 23.0 °F 24.8 °F 75% 30.11 in 10.0 mi SSW 11.5 mph - N/A   Mostly Cloudy
5:30 AM 32.0 °F 22.5 °F 24.8 °F 75% 30.10 in 10.0 mi South 12.7 mph - N/A   Mostly Cloudy
5:50 AM 30.2 °F 20.8 °F 24.8 °F 80% 30.10 in 10.0 mi South 11.5 mph - N/A   Mostly Cloudy
6:10 AM 32.0 °F 24.8 °F 24.8 °F 75% 30.10 in 10.0 mi SSW 8.1 mph - N/A   Mostly Cloudy
6:30 AM 32.0 °F 23.6 °F 24.8 °F 75% 30.10 in 10.0 mi SSW 10.4 mph - N/A   Mostly Cloudy
6:50 AM 30.2 °F 21.9 °F 24.8 °F 80% 30.09 in 10.0 mi SSW 9.2 mph - N/A   Mostly Cloudy
7:10 AM 28.4 °F 19.7 °F 24.8 °F 86% 30.09 in 10.0 mi SSW 9.2 mph - N/A   Scattered Clouds
7:30 AM 28.4 °F 21.2 °F 24.8 °F 86% 30.08 in 10.0 mi SSW 6.9 mph - N/A   Clear
7:50 AM 28.4 °F 18.5 °F 24.8 °F 86% 30.07 in 10.0 mi South 11.5 mph - N/A   Clear
8:10 AM 30.2 °F 20.8 °F 24.8 °F 80% 30.08 in 10.0 mi South 11.5 mph - N/A   Clear
8:30 AM 32.0 °F 23.6 °F 26.6 °F 80% 30.08 in 10.0 mi SSE 10.4 mph - N/A   Clear
8:50 AM 32.0 °F 25.6 °F 26.6 °F 80% 30.08 in 10.0 mi SSE 6.9 mph - N/A   Clear
9:10 AM 32.0 °F 24.8 °F 26.6 °F 80% 30.07 in 10.0 mi South 8.1 mph - N/A   Clear
9:30 AM 35.6 °F 29.9 °F 28.4 °F 75% 30.07 in 10.0 mi SW 6.9 mph - N/A   Clear
9:50 AM 39.2 °F 33.0 °F 28.4 °F 65% 30.06 in 10.0 mi SW 9.2 mph - N/A   Clear
10:10 AM 41.0 °F 36.4 °F 28.4 °F 61% 30.06 in 10.0 mi SSW 6.9 mph - N/A   Clear
10:30 AM 44.6 °F 43.1 °F 30.2 °F 57% 30.05 in 10.0 mi South 3.5 mph - N/A   Clear
10:50 AM 48.2 °F - 30.2 °F 50% 30.04 in 10.0 mi SSW 12.7 mph - N/A   Clear
11:10 AM 48.2 °F - 30.2 °F 50% 30.03 in 10.0 mi SSW 11.5 mph - N/A   Clear
11:30 AM 50.0 °F - 30.2 °F 47% 30.02 in 10.0 mi SSW 11.5 mph - N/A   Clear
11:50 AM 51.8 °F - 30.2 °F 44% 30.00 in 10.0 mi SSW 12.7 mph - N/A   Clear
12:10 PM 53.6 °F - 30.2 °F 41% 29.98 in 10.0 mi South 15.0 mph - N/A   Clear
12:30 PM 53.6 °F - 28.4 °F 38% 29.96 in 10.0 mi SSW 10.4 mph - N/A   Clear
12:50 PM 55.4 °F - 28.4 °F 36% 29.94 in 10.0 mi South 13.8 mph - N/A   Clear
1:10 PM 57.2 °F - 28.4 °F 33% 29.93 in 10.0 mi South 10.4 mph - N/A   Clear
1:30 PM 57.2 °F - 28.4 °F 33% 29.92 in 10.0 mi South 16.1 mph - N/A   Clear
1:50 PM 57.2 °F - 28.4 °F 33% 29.91 in 10.0 mi SSW 19.6 mph - N/A   Clear
2:10 PM 57.2 °F - 28.4 °F 33% 29.89 in 10.0 mi South 13.8 mph 20.7 mph N/A   Clear
2:30 PM 59.0 °F - 26.6 °F 29% 29.88 in 10.0 mi SSW 19.6 mph 27.6 mph N/A   Clear
2:50 PM 59.0 °F - 28.4 °F 31% 29.87 in 10.0 mi South 20.7 mph 25.3 mph N/A   Clear
3:10 PM 57.2 °F - 28.4 °F 33% 29.87 in 10.0 mi South 18.4 mph - N/A   Clear
3:30 PM 59.0 °F - 28.4 °F 31% 29.86 in 10.0 mi South 15.0 mph - N/A   Clear
3:50 PM 59.0 °F - 28.4 °F 31% 29.86 in 10.0 mi South 16.1 mph 21.9 mph N/A   Clear
4:10 PM 57.2 °F - 26.6 °F 31% 29.86 in 10.0 mi SSW 18.4 mph 23.0 mph N/A   Clear
4:30 PM 57.2 °F - 28.4 °F 33% 29.86 in 10.0 mi SSW 16.1 mph - N/A   Clear
4:50 PM 53.6 °F - 30.2 °F 41% 29.85 in 10.0 mi South 15.0 mph - N/A   Clear
5:10 PM 51.8 °F - 32.0 °F 47% 29.85 in 10.0 mi South 12.7 mph - N/A   Clear
5:30 PM 48.2 °F - 32.0 °F 54% 29.85 in 10.0 mi South 11.5 mph - N/A   Clear
5:50 PM 44.6 °F 40.2 °F 30.2 °F 57% 29.85 in 10.0 mi South 8.1 mph - N/A   Clear
6:10 PM 44.6 °F 40.7 °F 30.2 °F 57% 29.86 in 10.0 mi South 6.9 mph - N/A   Clear
6:30 PM 42.8 °F 37.5 °F 30.2 °F 61% 29.86 in 10.0 mi SSE 9.2 mph - N/A   Clear
6:50 PM 41.0 °F 35.2 °F 30.2 °F 65% 29.87 in 10.0 mi South 9.2 mph - N/A   Partly Cloudy
7:10 PM 39.2 °F 31.6 °F 32.0 °F 75% 29.87 in 10.0 mi South 12.7 mph - N/A   Partly Cloudy
7:30 PM 41.0 °F 33.1 °F 32.0 °F 70% 29.87 in 10.0 mi South 15.0 mph - N/A   Clear
7:50 PM 41.0 °F 33.9 °F 32.0 °F 70% 29.88 in 10.0 mi South 12.7 mph - N/A   Clear
8:10 PM 39.2 °F 33.0 °F 32.0 °F 75% 29.89 in 10.0 mi South 9.2 mph - N/A   Clear
8:30 PM 39.2 °F 34.2 °F 32.0 °F 75% 29.89 in 10.0 mi South 6.9 mph - N/A   Clear
8:50 PM 39.2 °F 32.0 °F 32.0 °F 75% 29.89 in 10.0 mi South 11.5 mph - N/A   Clear
9:10 PM 37.4 °F 28.9 °F 32.0 °F 81% 29.89 in 10.0 mi South 13.8 mph - N/A   Clear
9:30 PM 37.4 °F 30.3 °F 35.6 °F 93% 29.89 in 10.0 mi South 10.4 mph - N/A   Clear
9:50 PM 37.4 °F 31.4 °F 33.8 °F 87% 29.89 in 10.0 mi SSW 8.1 mph - N/A   Clear
10:10 PM 35.6 °F 28.0 °F 33.8 °F 93% 29.89 in 10.0 mi South 10.4 mph - N/A   Clear
10:30 PM 35.6 °F 29.2 °F 33.8 °F 93% 29.90 in 10.0 mi SSW 8.1 mph - N/A   Clear
10:50 PM 35.6 °F 28.6 °F 33.8 °F 93% 29.90 in 10.0 mi SW 9.2 mph - N/A   Clear
11:10 PM 35.6 °F 28.6 °F 35.6 °F 100% 29.91 in 10.0 mi WSW 9.2 mph - N/A   Clear
11:30 PM 35.6 °F 30.7 °F 35.6 °F 100% 29.91 in 8.0 mi WNW 5.8 mph - N/A   Clear
11:50 PM 39.2 °F 32.5 °F 37.4 °F 93% 29.94 in 10.0 mi NW 10.4 mph 19.6 mph N/A   Scattered Clouds